EW3554 Weather Reports


time (UTC)temp
F
wind
direction
speed
knots
gust
knots
rain 1hr
in
rain 24hr
in
rain mn
in
humidity
%
barometer
mb
20260906060015 67 0.0 0.0 0.00 0.26 0.00 92 1016.7
20260906055015 67 0.0 0.0 0.00 0.26 0.00 92 1017.0
20260906054015 66 0.0 0.0 0.00 0.26 0.00 92 1017.1
20260906053015 66 0.0 0.0 0.00 0.26 0.00 92 1017.4
20260906052015 66 0.0 0.0 0.00 0.26 0.00 92 1017.4
20260906051015 66 0.0 0.0 0.00 0.26 0.00 92 1017.4
20260906050015 66 0.0 0.0 0.00 0.26 0.00 91 1017.2
20260906045015 66 0.0 0.0 0.00 0.26 0.00 91 1017.2
20260906044015 66 0.0 0.0 0.00 0.26 0.00 91 1017.2
20260906043035 67 0.0 0.0 0.00 0.26 0.00 91 1017.2
20260906042015 67 0.0 0.0 0.00 0.26 0.00 91 1017.2
20260906041015 67 0.0 0.0 0.00 0.26 0.00 91 1017.1
20260906040015 67 0.0 0.0 0.00 0.26 0.26 91 1017.1
20260906035016 67 0.0 0.0 0.00 0.26 0.26 91 1017.2
20260906034016 67 0.0 0.0 0.00 0.26 0.26 91 1017.4
20260906033036 68 0.0 0.0 0.00 0.26 0.26 91 1017.5
20260906032016 68 0.0 0.0 0.00 0.26 0.26 91 1017.4
20260906031016 68 0.0 0.0 0.00 0.26 0.26 91 1017.3
20260906030016 68 0.0 0.0 0.00 0.26 0.26 90 1017.1
20260906025016 68 0.0 0.0 0.00 0.26 0.26 90 1016.7
20260906024016 68 0.0 0.0 0.00 0.26 0.26 90 1016.6
20260906023016 69 0.0 0.0 0.00 0.26 0.26 90 1016.4
20260906022016 69 0.0 0.0 0.00 0.26 0.26 90 1016.3
20260906021036 69 0.0 0.0 0.00 0.26 0.26 90 1016.4
20260906020016 69 0.0 0.0 0.00 0.26 0.26 89 1016.3
20260906015016 69 0.0 0.0 0.00 0.26 0.26 89 1016.2
20260906014036 70 0.0 0.0 0.00 0.26 0.26 89 1016.3
20260906013016 70 0.0 0.0 0.00 0.26 0.26 89 1016.2
20260906012016 70 0.0 0.0 0.00 0.26 0.26 89 1015.9
20260906011016 71 0.0 0.0 0.00 0.26 0.26 88 1015.7
20260906010016 71 0.0 0.0 0.00 0.26 0.26 88 1015.6
20260906005016 71 0.0 0.0 0.00 0.26 0.26 88 1015.7
20260906004015 71 0.0 0.0 0.00 0.26 0.26 87 1015.6
20260906003016 72 0.0 0.0 0.00 0.26 0.26 87 1015.4
20260906002016 72 0.0 0.0 0.00 0.26 0.26 86 1015.3
20260906001020 73 0.0 0.0 0.00 0.26 0.26 85 1015.2
20260906000016 73 0.0 0.0 0.00 0.26 0.26 85 1015.2
20260905235156 74 0.0 0.0 0.00 0.26 0.26 84 1015.1
20260905234016 74 0.0 0.0 0.00 0.26 0.26 83 1015.1
20260905233015 75 0.0 0.0 0.00 0.26 0.26 82 1015.3
20260905232016 75 0.0 0.0 0.00 0.26 0.26 82 1015.2
20260905231016 76 0.0 0.0 0.00 0.26 0.26 82 1015.1
20260905230015 76 0.0 0.0 0.00 0.26 0.26 81 1015.0
20260905225016 76 0.0 0.0 0.00 0.26 0.26 81 1015.0
20260905224015 77 0.0 0.0 0.00 0.26 0.26 79 1015.1
20260905223016 77 0.0 0.0 0.00 0.26 0.26 79 1015.2
20260905222036 78 0.0 0.0 0.00 0.26 0.26 77 1015.2
20260905221016 78 0.0 0.0 0.00 0.26 0.26 77 1015.2
20260905220055 79 0.0 0.0 0.00 0.26 0.26 76 1015.3
20260905215035 79 0.0 0.0 0.00 0.26 0.26 76 1015.3
20260905214015 80 0.0 0.0 0.00 0.26 0.26 74 1015.3
20260905213016 80 0.0 0.0 0.00 0.26 0.26 71 1015.3
20260905212017 80 0.0 0.0 0.00 0.26 0.26 72 1015.4
20260905211015 81 0.0 0.0 0.00 0.26 0.26 71 1015.6
20260905210015 80 0.0 0.0 0.00 0.26 0.26 75 1015.6
20260905205015 80 0.0 0.0 0.00 0.26 0.26 77 1015.6
20260905204016 79 0.0 0.0 0.00 0.26 0.26 75 1015.6
20260905203015 77 0.0 0.0 0.00 0.26 0.26 77 1015.6
20260905202015 76 0.0 0.0 0.00 0.26 0.26 80 1015.6
20260905201015 75 0.0 0.0 0.00 0.26 0.26 84 1015.5
20260905200015 73 0.0 0.0 0.00 0.26 0.26 86 1015.5
20260905195035 72 0.0 0.0 0.00 0.26 0.26 91 1015.4
20260905194015 71 0.0 0.0 0.00 0.26 0.26 91 1015.5
20260905193015 70 0.0 0.0 0.00 0.26 0.26 91 1015.5
20260905192015 70 0.0 0.0 0.00 0.26 0.26 91 1015.6
20260905191015 69 0.0 0.0 0.00 0.26 0.26 91 1015.7
20260905190015 69 0.0 0.0 0.00 0.26 0.26 90 1016.1
20260905185035 68 0.0 0.0 0.00 0.26 0.26 90 1016.1
20260905184015 68 0.0 0.0 0.00 0.26 0.26 88 1015.8
20260905183015 69 0.0 0.0 0.18 0.26 0.26 88 1015.8
20260905182015 69 0.0 0.0 0.26 0.26 0.26 89 1015.7
20260905181015 69 0.0 0.0 0.26 0.26 0.26 87 1016.2
20260905180015 70 0.0 0.0 0.26 0.26 0.26 86 1016.7
20260905175035 71 0.0 0.0 0.26 0.26 0.26 82 1017.0
20260905174015 74 0.0 0.0 0.26 0.26 0.26 76 1017.6
20260905173015 78 0.0 0.0 0.08 0.08 0.08 69 1018.8
20260905172015 80 0.0 0.0 0.00 0.00 0.00 71 1018.5
20260905171015 81 0.0 0.0 0.00 0.00 0.00 71 1018.1
20260905170015 82 0.0 0.0 0.00 0.00 0.00 71 1018.1
20260905165015 82 0.0 0.0 0.00 0.00 0.00 70 1018.0
20260905164015 82 0.0 0.0 0.00 0.00 0.00 72 1018.1
20260905163015 81 0.0 0.0 0.00 0.00 0.00 72 1018.0
20260905162035 80 0.0 0.0 0.00 0.00 0.00 75 1018.1
20260905161015 80 0.0 0.0 0.00 0.00 0.00 76 1018.2
20260905160015 79 0.0 0.0 0.00 0.00 0.00 75 1018.4
20260905155015 79 0.0 0.0 0.00 0.00 0.00 75 1018.5
20260905154035 79 0.0 0.0 0.00 0.00 0.00 78 1018.5
20260905153015 78 0.0 0.0 0.00 0.00 0.00 79 1018.3
20260905152015 77 0.0 0.0 0.00 0.00 0.00 80 1017.9
20260905151015 76 0.0 0.0 0.00 0.00 0.00 84 1017.9
20260905150015 75 0.0 0.0 0.00 0.00 0.00 87 1017.9
20260905145015 74 0.0 0.0 0.00 0.00 0.00 90 1017.9
20260905144035 73 0.0 0.0 0.00 0.00 0.00 94 1018.0
20260905143015 72 0.0 0.0 0.00 0.00 0.00 94 1017.8
20260905142055 71 0.0 0.0 0.00 0.00 0.00 94 1017.8
20260905141015 71 0.0 0.0 0.00 0.00 0.00 94 1017.7
20260905140035 70 0.0 0.0 0.00 0.00 0.00 93 1017.8
20260905135015 69 0.0 0.0 0.00 0.00 0.00 93 1017.8
20260905134015 69 0.0 0.0 0.00 0.00 0.00 93 1017.8
20260905133014 69 0.0 0.0 0.00 0.00 0.00 93 1018.0
20260905132015 69 0.0 0.0 0.00 0.00 0.00 93 1018.2
20260905131015 68 0.0 0.0 0.00 0.00 0.00 93 1018.3
20260905130015 68 0.0 0.0 0.00 0.00 0.00 93 1018.6
20260905125015 68 0.0 0.0 0.00 0.00 0.00 93 1018.7
20260905124015 68 0.0 0.0 0.00 0.00 0.00 93 1018.6
20260905123015 68 0.0 0.0 0.00 0.00 0.00 93 1018.7
20260905122014 67 0.0 0.0 0.00 0.00 0.00 93 1018.4
20260905121015 68 0.0 0.0 0.00 0.00 0.00 93 1018.3
20260905120015 67 0.0 0.0 0.00 0.00 0.00 93 1018.4
20260905115017 67 0.0 0.0 0.00 0.00 0.00 93 1018.4
20260905114016 67 0.0 0.0 0.00 0.00 0.00 93 1018.2
20260905113017 67 0.0 0.0 0.00 0.00 0.00 93 1018.3
20260905112017 67 0.0 0.0 0.00 0.00 0.00 93 1018.3
20260905111016 67 0.0 0.0 0.00 0.00 0.00 92 1018.2
20260905110016 67 0.0 0.0 0.00 0.00 0.00 92 1018.2
20260905105017 67 0.0 0.0 0.00 0.00 0.00 92 1018.1
20260905104016 67 0.0 0.0 0.00 0.00 0.00 92 1018.1
20260905103016 67 0.0 0.0 0.00 0.00 0.00 92 1018.0
20260905102016 67 0.0 0.0 0.00 0.00 0.00 92 1018.0
20260905101057 67 0.0 0.0 0.00 0.00 0.00 92 1017.9
20260905100016 67 0.0 0.0 0.00 0.00 0.00 92 1018.1
20260905095016 67 0.0 0.0 0.00 0.00 0.00 92 1018.2
20260905094016 67 0.0 0.0 0.00 0.00 0.00 92 1018.1
20260905093016 67 0.0 0.0 0.00 0.00 0.00 92 1018.3
20260905092016 67 0.0 0.0 0.00 0.00 0.00 92 1018.4
20260905091036 67 0.0 0.0 0.00 0.00 0.00 92 1018.5
20260905090016 67 0.0 0.0 0.00 0.00 0.00 92 1018.5
20260905085016 67 0.0 0.0 0.00 0.00 0.00 92 1018.7
20260905084016 67 0.0 0.0 0.00 0.00 0.00 91 1018.7
20260905083016 67 0.0 0.0 0.00 0.00 0.00 91 1018.8
20260905082036 67 0.0 0.0 0.00 0.00 0.00 91 1018.9
20260905081016 67 0.0 0.0 0.00 0.00 0.00 91 1018.9
20260905080036 67 0.0 0.0 0.00 0.00 0.00 91 1018.9
20260905075016 67 0.0 0.0 0.00 0.00 0.00 91 1019.0
20260905074016 67 0.0 0.0 0.00 0.00 0.00 91 1019.1
20260905073016 67 0.0 0.0 0.00 0.00 0.00 91 1019.1
20260905072056 67 0.0 0.0 0.00 0.00 0.00 91 1019.2
20260905071016 68 0.0 0.0 0.00 0.00 0.00 91 1019.2
20260905070016 68 0.0 0.0 0.00 0.00 0.00 91 1019.4
20260905065036 68 0.0 0.0 0.00 0.00 0.00 91 1019.4
20260905064016 68 0.0 0.0 0.00 0.00 0.00 91 1019.5
20260905063016 68 0.0 0.0 0.00 0.00 0.00 91 1019.6
20260905062016 68 0.0 0.0 0.00 0.00 0.00 91 1019.8
20260905061016 68 0.0 0.0 0.00 0.00 0.00 91 1020.0